User: anonymous   Login
Location: Newark
(36.1358°N, 115.1208°W)
Time: 13:11:33
(UTC+00:00)
Language:

Explorer 7 - Orbit

View from above orbital plane
View from above orbital plane
View from above satellite
View from above satellite

Ground track
Ground track

The orbit data is extracted from the following two-line orbital elements,

1    22U 59009A   20058.81827439 +.00000041 +00000-0 +26174-4 0  9993
2    22 050.2832 261.1377 0139723 196.0191 163.6314 14.95047241453828
Epoch (UTC): 27 February 2020 19:38:18
Eccentricity: 0.0139723
inclination: 50.2832°
perigee height: 485 km
apogee height: 679 km
right ascension of ascending node: 261.1377°
argument of perigee: 196.0191°
revolutions per day: 14.95047241
mean anomaly at epoch: 163.6314°
orbit number at epoch: 45382

The dashed part of the orbit path shows where the satellite is in the earth's shadow,  

DLR